Location: Unspecified
(41.1850°N, 73.2650°W)
Time: 19:43:00
(UTC+00:00)

ISS - Visible Passes

Search period start: 19 October 2021 00:00
Search period end: 29 October 2021 00:00
Orbit: 417 x 423 km, 51.6° (Epoch: 19 October)

Date Brightness Start Highest point End Pass type
(mag) Time Alt. Az. Time Alt. Az. Time Alt. Az.
19 Oct -0.7 10:23:25 10° SSE 10:25:21 15° SE 10:27:17 10° E visible
21 Oct -2.5 10:24:15 10° SSW 10:27:27 42° SE 10:30:40 10° ENE visible
22 Oct -1.6 09:37:47 11° S 09:40:21 25° SE 09:43:11 10° ENE visible
23 Oct -1.0 08:53:19 15° SE 08:53:19 15° SE 08:55:17 10° E visible
23 Oct -3.7 10:26:24 10° WSW 10:29:45 64° NNW 10:33:07 10° NE visible
24 Oct -3.7 09:41:40 47° SW 09:42:31 77° SE 09:45:53 10° ENE visible
25 Oct -1.5 08:56:50 25° E 08:56:50 25° E 08:58:33 10° ENE visible
25 Oct -2.6 10:29:50 14° W 10:32:14 28° NNW 10:35:13 10° NE visible
26 Oct -3.1 09:44:50 40° NNW 09:44:52 40° NNW 09:48:05 10° NE visible
27 Oct -1.3 08:59:44 20° NE 08:59:44 20° NE 09:00:54 10° NE visible
27 Oct -1.8 10:32:44 11° NW 10:34:53 18° NNW 10:37:16 10° NNE visible
28 Oct -2.1 09:47:32 21° NNW 09:47:32 21° NNW 09:50:05 10° NNE visible
